Retour au catalogue

FREGAT R/B

LostMEO
NORAD 38859·ROCKET BODY·🇷🇺 Russia

Lancé Oct 12, 2012 depuis Guiana Space Centre

Loading…

Prochains Passages (prochaines 24 heures)

TLE

PériméSource: Space-Track

Époque: Jul 31, 2026, 23:15 UTC

1 38859U 12055C   26212.96901288  .00000003  00000-0  00000-0 0  9995
2 38859  55.6985 107.0329 0004636 354.9278   5.1360  1.66707153 84027

Suivez FREGAT R/B en temps réel avec AllMySat

Download on the App Store